THORAD AGENA D DEB, 6167

Orbit data source: Space-Track

THORAD AGENA D DEB, 6167 is space debris in SSO originally from a launch on Wed, 08 Apr 1970 UTC launched from the Air Force Western Test Range (AFWTR). Debris objects in space refer to the collection of defunct objects orbiting the Earth. Examples of debris include non-operational satellites, rocket bodies, and fragments generated from explosions, collisions, or faulty payload assembly.

Loading next visibility...
Identifier
6167, 1970-025NB
Orbit
SSO
Country
Flag of USUS
Related business
Manufacturer
Unknown
Mission
Spacecraft
Bus & Motor
Unknown
Mass
Unknown
Launch date (UTC)
1970-04-08 (56 years ago)
Launch vehicle
Unknown
Launch site
Air Force Western Test Range (AFWTR)
Object type
Payload
Rocket body
Debris
Shape & HBR
Unknown shape, 0.1 m
Radar Cross Section
Medium (>0.1 m² and <1 m²)

Expand to show TLE details & history
Last TLE update: 13 hours ago

TLE from 13 hours ago
0 THORAD AGENA D DEB
1 06167U 70025NB  26208.01708375  .00000366  00000-0  47746-3 0  9999
2 06167 100.1196 229.5309 0030911 223.7265 165.2818 13.69116935800813
Epoch: 2026-07-27T00:24Z
TLE epoch observation values (Epoch: 2026-07-27T00:24:36.036Z)
Latitude
28.64854°
Longitude
-86.89259°
Altitude
1,028.253 km
Speed
7.329 km/s
True Right ascension
14h 55m 51s
True Declination
28° 30' 34"
Sunlit
Object was in daylight at epoch
Visualization orbit readout
Latitude
Unknown
Longitude
Unknown
Altitude
Unknown
Speed
Unknown
Apparent Right ascension
Unknown
Apparent Declination
Unknown
Sunlit
N/A
Visualization observer readout
Local Sidereal Time
02:21:47
Azimuth
Unknown
Elevation
Unknown
Doppler factor
Unknown
Orbital elements
Apogee altitude
1,022.848 km
Perigee altitude
977.234 km
Semi-major axis
7,378.178 km
Eccentricity
0.00309
Inclination
100.1196°
RAAN
229.5309°
Arg. of periapsis
223.7265°
True anomaly
165.37146°
Mean anomaly
165.2818°
Eccentric anomaly
165.32666°
Mean motion
3.42468 °/min
Orbital period
105.12 mins
BSTAR
0.00047746
Loading maneuver chart data...
Computing Atmospheric mass density...

Documentation

Showing up to 5 results
|